| time (UTC) | temp F | wind direction | speed MPH | gust MPH | rain 1hr in | rain 24hr in | rain mn in | humidity % | barometer mb |
| 20260509004516 | 74 | 315 | 2.0 | 4.0 | 0.00 | 0.00 | 0.00 | 19 | 1015.1 |
| 20260509003517 | 74 | 113 | 2.0 | 5.0 | 0.00 | 0.00 | 0.00 | 19 | 1015.3 |
| 20260509002516 | 74 | 315 | 3.0 | 8.0 | 0.00 | 0.00 | 0.00 | 19 | 1015.4 |
| 20260509001517 | 74 | 23 | 3.0 | 7.0 | 0.00 | 0.00 | 0.00 | 19 | 1015.5 |
| 20260509000516 | 74 | 248 | 4.0 | 7.0 | 0.00 | 0.00 | 0.00 | 20 | 1015.6 |
| 20260508235517 | 74 | 315 | 4.0 | 8.0 | 0.00 | 0.00 | 0.00 | 20 | 1015.7 |
| 20260508234516 | 75 | 0 | 4.0 | 9.0 | 0.00 | 0.00 | 0.00 | 21 | 1015.8 |
| 20260508233517 | 75 | 315 | 3.0 | 10.0 | 0.00 | 0.00 | 0.00 | 21 | 1015.8 |
| 20260508232537 | 75 | 315 | 2.0 | 5.0 | 0.00 | 0.00 | 0.00 | 19 | 1015.8 |
| 20260508231517 | 74 | 68 | 3.0 | 7.0 | 0.00 | 0.00 | 0.00 | 21 | 1015.9 |
| 20260508230516 | 74 | 270 | 4.0 | 11.0 | 0.00 | 0.00 | 0.00 | 21 | 1015.7 |
| 20260508225516 | 73 | 0 | 6.0 | 12.0 | 0.00 | 0.00 | 0.00 | 21 | 1015.9 |
| 20260508224517 | 74 | 315 | 4.0 | 9.0 | 0.00 | 0.00 | 0.00 | 21 | 1016.3 |
| 20260508223517 | 74 | 248 | 4.0 | 9.0 | 0.00 | 0.00 | 0.00 | 21 | 1016.3 |
| 20260508222517 | 73 | 23 | 4.0 | 8.0 | 0.00 | 0.00 | 0.00 | 21 | 1016.3 |
| 20260508221518 | 73 | 293 | 1.0 | 3.0 | 0.00 | 0.00 | 0.00 | 21 | 1016.3 |
| 20260508220537 | 73 | 248 | 4.0 | 8.0 | 0.00 | 0.00 | 0.00 | 20 | 1016.9 |
| 20260508215556 | 74 | 315 | 4.0 | 9.0 | 0.00 | 0.00 | 0.00 | 22 | 1016.9 |
| 20260508214516 | 73 | 315 | 5.0 | 11.0 | 0.00 | 0.00 | 0.00 | 20 | 1017.0 |
| 20260508213516 | 73 | 315 | 6.0 | 12.0 | 0.00 | 0.00 | 0.00 | 21 | 1016.8 |
| 20260508212517 | 72 | 248 | 4.0 | 11.0 | 0.00 | 0.00 | 0.00 | 21 | 1016.7 |
| 20260508211517 | 72 | 315 | 4.0 | 9.0 | 0.00 | 0.00 | 0.00 | 21 | 1016.8 |
| 20260508210516 | 72 | 315 | 6.0 | 13.0 | 0.00 | 0.00 | 0.00 | 22 | 1017.1 |
| 20260508205516 | 73 | 270 | 3.0 | 9.0 | 0.00 | 0.00 | 0.00 | 23 | 1017.1 |
| 20260508204517 | 72 | 315 | 6.0 | 15.0 | 0.00 | 0.00 | 0.00 | 22 | 1017.2 |
| 20260508203516 | 72 | 315 | 6.0 | 22.0 | 0.00 | 0.00 | 0.00 | 21 | 1017.7 |
| 20260508202516 | 72 | 270 | 5.0 | 16.0 | 0.00 | 0.00 | 0.00 | 21 | 1017.7 |
| 20260508201517 | 71 | 315 | 3.0 | 10.0 | 0.00 | 0.00 | 0.00 | 25 | 1017.6 |
| 20260508200516 | 71 | 270 | 3.0 | 8.0 | 0.00 | 0.00 | 0.00 | 23 | 1017.7 |
| 20260508195516 | 71 | 270 | 4.0 | 14.0 | 0.00 | 0.00 | 0.00 | 24 | 1017.4 |
| 20260508194516 | 70 | 270 | 3.0 | 10.0 | 0.00 | 0.00 | 0.00 | 24 | 1017.4 |
| 20260508193517 | 70 | 270 | 3.0 | 9.0 | 0.00 | 0.00 | 0.00 | 27 | 1017.2 |
| 20260508192517 | 69 | 248 | 6.0 | 10.0 | 0.00 | 0.00 | 0.00 | 26 | 1017.2 |
| 20260508191537 | 69 | 158 | 3.0 | 6.0 | 0.00 | 0.00 | 0.00 | 25 | 1017.4 |
| 20260508190517 | 70 | 315 | 4.0 | 9.0 | 0.00 | 0.00 | 0.00 | 25 | 1017.8 |
| 20260508185516 | 70 | 270 | 3.0 | 7.0 | 0.00 | 0.00 | 0.00 | 27 | 1017.9 |
| 20260508184537 | 69 | 248 | 5.0 | 12.0 | 0.00 | 0.00 | 0.00 | 25 | 1018.0 |
| 20260508183516 | 69 | 248 | 4.0 | 11.0 | 0.00 | 0.00 | 0.00 | 26 | 1018.0 |
| 20260508182516 | 69 | 315 | 4.0 | 8.0 | 0.00 | 0.00 | 0.00 | 27 | 1018.2 |
| 20260508181517 | 69 | 248 | 3.0 | 6.0 | 0.00 | 0.00 | 0.00 | 26 | 1018.2 |
| 20260508180517 | 68 | 248 | 3.0 | 8.0 | 0.00 | 0.00 | 0.00 | 30 | 1018.1 |
| 20260508175517 | 68 | 248 | 4.0 | 9.0 | 0.00 | 0.00 | 0.00 | 29 | 1018.5 |
| 20260508174517 | 67 | 225 | 2.0 | 7.0 | 0.00 | 0.00 | 0.00 | 32 | 1018.3 |
| 20260508173516 | 68 | 225 | 2.0 | 5.0 | 0.00 | 0.00 | 0.00 | 30 | 1018.6 |
| 20260508172517 | 68 | 338 | 3.0 | 6.0 | 0.00 | 0.00 | 0.00 | 31 | 1018.3 |
| 20260508171517 | 67 | 225 | 4.0 | 8.0 | 0.00 | 0.00 | 0.00 | 28 | 1018.2 |
| 20260508170516 | 67 | 270 | 2.0 | 4.0 | 0.00 | 0.00 | 0.00 | 29 | 1018.1 |
| 20260508165517 | 66 | 270 | 1.0 | 3.0 | 0.00 | 0.00 | 0.00 | 30 | 1017.8 |
| 20260508164517 | 67 | 315 | 2.0 | 4.0 | 0.00 | 0.00 | 0.00 | 31 | 1017.9 |
| 20260508163536 | 66 | 315 | 2.0 | 5.0 | 0.00 | 0.00 | 0.00 | 33 | 1018.0 |
| 20260508162536 | 66 | 315 | 2.0 | 5.0 | 0.00 | 0.00 | 0.00 | 32 | 1018.2 |
| 20260508161517 | 66 | 315 | 3.0 | 6.0 | 0.00 | 0.00 | 0.00 | 32 | 1018.3 |
| 20260508160516 | 66 | 113 | 2.0 | 4.0 | 0.00 | 0.00 | 0.00 | 32 | 1018.2 |
| 20260508155537 | 65 | 113 | 1.0 | 2.0 | 0.00 | 0.00 | 0.00 | 31 | 1018.2 |
| 20260508154516 | 65 | 113 | 1.0 | 4.0 | 0.00 | 0.00 | 0.00 | 33 | 1018.3 |
| 20260508153516 | 64 | 113 | 1.0 | 2.0 | 0.00 | 0.00 | 0.00 | 32 | 1017.9 |
| 20260508152516 | 64 | 0.0 | 1.0 | 0.00 | 0.00 | 0.00 | 34 | 1018.4 | |
| 20260508151516 | 63 | 0.0 | 0.0 | 0.00 | 0.00 | 0.00 | 35 | 1018.0 | |
| 20260508150516 | 62 | 0.0 | 0.0 | 0.00 | 0.00 | 0.00 | 37 | 1018.0 | |
| 20260508145516 | 61 | 0.0 | 0.0 | 0.00 | 0.00 | 0.00 | 37 | 1017.8 | |
| 20260508144516 | 59 | 113 | 1.0 | 1.0 | 0.00 | 0.00 | 0.00 | 39 | 1017.7 |
| 20260508143517 | 58 | 113 | 1.0 | 3.0 | 0.00 | 0.00 | 0.00 | 40 | 1017.3 |
| 20260508142516 | 58 | 113 | 2.0 | 3.0 | 0.00 | 0.00 | 0.00 | 41 | 1018.0 |
| 20260508141516 | 58 | 113 | 4.0 | 9.0 | 0.00 | 0.00 | 0.00 | 38 | 1017.8 |
| 20260508140516 | 57 | 135 | 5.0 | 12.0 | 0.00 | 0.00 | 0.00 | 42 | 1017.8 |
| 20260508135516 | 57 | 113 | 5.0 | 9.0 | 0.00 | 0.00 | 0.00 | 40 | 1018.2 |
| 20260508134516 | 59 | 113 | 9.0 | 14.0 | 0.00 | 0.00 | 0.00 | 35 | 1018.2 |
| 20260508133516 | 59 | 113 | 9.0 | 15.0 | 0.00 | 0.00 | 0.00 | 37 | 1018.1 |
| 20260508132537 | 58 | 113 | 11.0 | 18.0 | 0.00 | 0.00 | 0.00 | 37 | 1017.8 |
| 20260508131516 | 58 | 113 | 9.0 | 16.0 | 0.00 | 0.00 | 0.00 | 38 | 1017.7 |
| 20260508130517 | 58 | 90 | 10.0 | 16.0 | 0.00 | 0.00 | 0.00 | 37 | 1017.5 |
| 20260508125520 | 57 | 113 | 11.0 | 17.0 | 0.00 | 0.00 | 0.00 | 38 | 1017.5 |
| 20260508124516 | 59 | 90 | 11.0 | 20.0 | 0.00 | 0.00 | 0.00 | 36 | 1017.7 |
| 20260508123516 | 59 | 113 | 9.0 | 19.0 | 0.00 | 0.00 | 0.00 | 36 | 1017.6 |
| 20260508122556 | 58 | 113 | 7.0 | 14.0 | 0.00 | 0.00 | 0.00 | 37 | 1016.9 |
| 20260508121516 | 58 | 113 | 11.0 | 17.0 | 0.00 | 0.00 | 0.00 | 38 | 1016.9 |
| 20260508120516 | 58 | 113 | 7.0 | 14.0 | 0.00 | 0.00 | 0.00 | 38 | 1016.7 |
| 20260508115516 | 59 | 113 | 6.0 | 16.0 | 0.00 | 0.00 | 0.00 | 38 | 1017.2 |
| 20260508114516 | 59 | 113 | 7.0 | 16.0 | 0.00 | 0.00 | 0.00 | 37 | 1017.0 |
| 20260508113557 | 59 | 113 | 9.0 | 14.0 | 0.00 | 0.00 | 0.00 | 38 | 1017.0 |
| 20260508112536 | 59 | 113 | 7.0 | 11.0 | 0.00 | 0.00 | 0.00 | 38 | 1017.1 |
| 20260508111516 | 59 | 113 | 7.0 | 13.0 | 0.00 | 0.00 | 0.00 | 38 | 1017.1 |
| 20260508110516 | 58 | 113 | 4.0 | 9.0 | 0.00 | 0.00 | 0.00 | 39 | 1016.7 |
| 20260508105517 | 58 | 90 | 3.0 | 6.0 | 0.00 | 0.00 | 0.00 | 40 | 1016.8 |
| 20260508104516 | 58 | 113 | 3.0 | 5.0 | 0.00 | 0.00 | 0.00 | 40 | 1016.6 |
| 20260508103557 | 58 | 113 | 5.0 | 9.0 | 0.00 | 0.00 | 0.00 | 39 | 1016.5 |
| 20260508102516 | 58 | 113 | 6.0 | 10.0 | 0.00 | 0.00 | 0.00 | 40 | 1016.5 |
| 20260508101516 | 58 | 90 | 5.0 | 16.0 | 0.00 | 0.00 | 0.00 | 41 | 1016.6 |
| 20260508100516 | 58 | 113 | 8.0 | 13.0 | 0.00 | 0.00 | 0.00 | 40 | 1016.4 |
| 20260508095556 | 59 | 113 | 7.0 | 15.0 | 0.00 | 0.00 | 0.00 | 39 | 1016.8 |
| 20260508094516 | 59 | 113 | 9.0 | 18.0 | 0.00 | 0.00 | 0.00 | 38 | 1016.6 |
| 20260508093516 | 60 | 113 | 6.0 | 14.0 | 0.00 | 0.00 | 0.00 | 37 | 1016.7 |
| 20260508092536 | 60 | 135 | 5.0 | 10.0 | 0.00 | 0.00 | 0.00 | 37 | 1016.5 |
| 20260508091516 | 60 | 113 | 7.0 | 16.0 | 0.00 | 0.00 | 0.00 | 38 | 1016.6 |
| 20260508090516 | 59 | 113 | 7.0 | 13.0 | 0.00 | 0.00 | 0.00 | 38 | 1016.2 |
| 20260508085516 | 60 | 113 | 7.0 | 15.0 | 0.00 | 0.00 | 0.00 | 37 | 1016.6 |
| 20260508084516 | 60 | 113 | 8.0 | 17.0 | 0.00 | 0.00 | 0.00 | 37 | 1016.7 |
| 20260508083537 | 59 | 113 | 9.0 | 17.0 | 0.00 | 0.00 | 0.00 | 38 | 1016.7 |
| 20260508082516 | 60 | 113 | 9.0 | 17.0 | 0.00 | 0.00 | 0.00 | 37 | 1016.4 |
| 20260508081516 | 60 | 113 | 5.0 | 10.0 | 0.00 | 0.00 | 0.00 | 36 | 1016.4 |
| 20260508080516 | 61 | 113 | 6.0 | 12.0 | 0.00 | 0.00 | 0.00 | 36 | 1016.8 |
| 20260508075516 | 61 | 113 | 7.0 | 16.0 | 0.00 | 0.00 | 0.00 | 36 | 1016.5 |
| 20260508074516 | 61 | 113 | 7.0 | 13.0 | 0.00 | 0.00 | 0.00 | 35 | 1016.7 |
| 20260508073518 | 61 | 113 | 9.0 | 16.0 | 0.00 | 0.00 | 0.00 | 35 | 1016.8 |
| 20260508072516 | 61 | 113 | 13.0 | 20.0 | 0.00 | 0.00 | 0.00 | 36 | 1016.7 |
| 20260508071536 | 61 | 113 | 11.0 | 19.0 | 0.00 | 0.00 | 0.00 | 36 | 1016.7 |
| 20260508070516 | 60 | 113 | 10.0 | 15.0 | 0.00 | 0.00 | 0.00 | 38 | 1016.4 |
| 20260508065516 | 61 | 113 | 11.0 | 17.0 | 0.00 | 0.00 | 0.00 | 36 | 1016.1 |
| 20260508064516 | 61 | 113 | 7.0 | 13.0 | 0.00 | 0.00 | 0.00 | 35 | 1016.1 |
| 20260508063516 | 61 | 113 | 8.0 | 17.0 | 0.00 | 0.00 | 0.00 | 36 | 1016.1 |
| 20260508062516 | 61 | 113 | 8.0 | 17.0 | 0.00 | 0.00 | 0.00 | 36 | 1016.1 |
| 20260508061516 | 61 | 135 | 7.0 | 11.0 | 0.00 | 0.00 | 0.00 | 36 | 1016.2 |
| 20260508060516 | 62 | 113 | 12.0 | 15.0 | 0.00 | 0.00 | 0.00 | 35 | 1016.1 |
| 20260508060016 | 61 | 113 | 7.0 | 13.0 | 0.00 | 0.00 | 0.00 | 35 | 1015.9 |
| 20260508055037 | 62 | 113 | 7.0 | 11.0 | 0.00 | 0.00 | 0.00 | 34 | 1015.8 |
| 20260508054017 | 62 | 113 | 7.0 | 12.0 | 0.00 | 0.00 | 0.00 | 34 | 1015.8 |
| 20260508053037 | 63 | 113 | 9.0 | 15.0 | 0.00 | 0.00 | 0.00 | 33 | 1015.5 |
| 20260508052017 | 62 | 113 | 8.0 | 14.0 | 0.00 | 0.00 | 0.00 | 34 | 1015.5 |
| 20260508051037 | 62 | 113 | 8.0 | 16.0 | 0.00 | 0.00 | 0.00 | 35 | 1015.1 |
| 20260508050017 | 62 | 113 | 8.0 | 15.0 | 0.00 | 0.00 | 0.00 | 35 | 1014.8 |
| 20260508045017 | 61 | 113 | 9.0 | 15.0 | 0.00 | 0.00 | 0.00 | 37 | 1014.8 |
| 20260508044017 | 62 | 113 | 10.0 | 14.0 | 0.00 | 0.00 | 0.00 | 34 | 1015.2 |
| 20260508043017 | 61 | 113 | 9.0 | 16.0 | 0.00 | 0.00 | 0.00 | 36 | 1014.7 |
| 20260508042017 | 62 | 113 | 12.0 | 18.0 | 0.00 | 0.00 | 0.00 | 34 | 1014.7 |
| 20260508041017 | 62 | 113 | 13.0 | 17.0 | 0.00 | 0.00 | 0.00 | 36 | 1014.8 |
| 20260508040017 | 62 | 113 | 12.0 | 19.0 | 0.00 | 0.00 | 0.00 | 36 | 1014.7 |
| 20260508035017 | 64 | 113 | 8.0 | 14.0 | 0.00 | 0.00 | 0.00 | 33 | 1014.9 |
| 20260508034019 | 63 | 113 | 9.0 | 14.0 | 0.00 | 0.00 | 0.00 | 34 | 1014.8 |
| 20260508033017 | 63 | 113 | 9.0 | 15.0 | 0.00 | 0.00 | 0.00 | 35 | 1014.6 |
| 20260508032018 | 62 | 113 | 11.0 | 16.0 | 0.00 | 0.00 | 0.00 | 37 | 1014.5 |
| 20260508031017 | 64 | 113 | 9.0 | 16.0 | 0.00 | 0.00 | 0.00 | 34 | 1014.4 |
| 20260508030040 | 64 | 113 | 7.0 | 11.0 | 0.00 | 0.00 | 0.00 | 34 | 1013.9 |
| 20260508025016 | 65 | 113 | 5.0 | 10.0 | 0.00 | 0.00 | 0.00 | 33 | 1013.9 |
| 20260508024037 | 66 | 113 | 3.0 | 4.0 | 0.00 | 0.00 | 0.00 | 31 | 1014.3 |
| 20260508023017 | 68 | 0.0 | 1.0 | 0.00 | 0.00 | 0.00 | 29 | 1014.2 | |
| 20260508022017 | 71 | 0.0 | 0.0 | 0.00 | 0.00 | 0.00 | 27 | 1014.5 | |
| 20260508021037 | 71 | 0 | 1.0 | 2.0 | 0.00 | 0.00 | 0.00 | 26 | 1014.4 |
| 20260508015037 | 73 | 315 | 2.0 | 5.0 | 0.00 | 0.00 | 0.00 | 24 | 1014.7 |
| 20260508014017 | 74 | 0.0 | 1.0 | 0.00 | 0.00 | 0.00 | 23 | 1014.7 | |
| 20260508013016 | 74 | 0.0 | 0.0 | 0.00 | 0.00 | 0.00 | 23 | 1014.8 | |
| 20260508012017 | 74 | 158 | 1.0 | 4.0 | 0.00 | 0.00 | 0.00 | 23 | 1015.2 |
| 20260508011017 | 73 | 225 | 3.0 | 7.0 | 0.00 | 0.00 | 0.00 | 22 | 1014.8 |
| 20260508010017 | 73 | 158 | 3.0 | 6.0 | 0.00 | 0.00 | 0.00 | 23 | 1014.9 |